Regional Weather Roundup
Issued by NWS

Home | Current Version | Previous Version | Graphics & Text | Print | Product List | Glossary Off
Versions: 1 2 3 4 5 6 7 8 9 10 11 12 13 14 15 16 17 18 19 20 21 22 23 24 25 26 27

000
ASUS43 KDMX 230007
RWRIA

WEATHER ROUNDUP FOR IOWA
NATIONAL WEATHER SERVICE DES MOINES IA
700 PM CDT TUE APR 22 2014

NOTE: "FAIR" INDICATES FEW OR NO CLOUDS BELOW 12,000 FEET WITH NO
SIGNIFICANT WEATHER AND/OR OBSTRUCTIONS TO VISIBILITY.

* - THESE STATIONS ARE NOT NWS STATIONS...THUS NOT UNDER NWS
QUALITY CONTROL.  THEY ALSO DO NOT REPORT WEATHER SUCH
AS PRECIPITATION OR FOG.

IAZ001>003-012>014-020>022-031>034-043>046-230100-
   NORTHWEST IOWA

CITY           SKY/WX    TMP DP  RH WIND       PRES   REMARKS
CARROLL *      CLOUDY    63  30  29 E9        30.01S
CHEROKEE *     CLOUDY    63  34  34 SE9       30.00F
DENISON *      PTSUNNY   63  34  34 SE6       29.99F
LE MARS *      CLOUDY    64  34  32 SE10      29.97F
ORANGE CITY *  PTSUNNY   64  28  25 SE7       29.98F
SHELDON *      CLOUDY    63  32  31 E12       29.97F
SIOUX CITY     CLOUDY    66  33  29 SE14      29.96F
6HR MIN TEMP:  62; 6HR MAX TEMP:  70;

SPENCER        CLOUDY    62  35  36 SE8       30.01S
6HR MIN TEMP:  58; 6HR MAX TEMP:  65;

STORM LAKE *   MOSUNNY   61  34  36 SE9       30.02S
$$

IAZ055>058-069>071-079>083-090>094-230100-
   SOUTHWEST IOWA

CITY           SKY/WX    TMP DP  RH WIND       PRES   REMARKS
ATLANTIC *     MOSUNNY   64  32  29 SE6       30.00S
AUDUBON *      SUNNY     63  21  20 E6        30.02S
CLARINDA *     SUNNY     66  30  26 E6        30.01F
COUNCIL BLFS * PTSUNNY   64  36  34 SE8       29.98F
CRESTON *      SUNNY     64  30  27 E8        30.01F
HARLAN  *      PTSUNNY   64  34  32 SE9       30.03F
LAMONI         SUNNY     63  34  33 NE5       30.02F
6HR MIN TEMP:  60; 6HR MAX TEMP:  66;

RED OAK *      PTSUNNY   66  36  32 E8        30.00F
SHENANDOAH *   SUNNY     68  34  28 E8        29.99F
$$

IAZ047>049-059>061-072>074-084-230100-
   CENTRAL IOWA

CITY           SKY/WX    TMP DP  RH WIND       PRES   REMARKS
AMES           SUNNY     61  32  33 NE6       30.02F
6HR MIN TEMP:  59; 6HR MAX TEMP:  64;

ANKENY *       SUNNY     63  32  31 NE7       30.02F
CHARITON *     SUNNY     63  32  31 NE5       30.02F
DES MOINES     MOSUNNY   65  30  27 NE5       30.02S
6HR MIN TEMP:  62; 6HR MAX TEMP:  67;

GRINNELL*      CLEAR     61  30  31 N8        30.03F
KNOXVILLE *    SUNNY     63  30  29 NE6       30.01F
MARSHALLTOWN   SUNNY     60  32  34 N9        30.03S
6HR MIN TEMP:  58; 6HR MAX TEMP:  62;

NEWTON *       SUNNY     61  30  31 N9        30.03F
PELLA *        SUNNY     63  32  31 N7        30.04S
PERRY *          N/A     63  25  23 NE6       30.01F
$$

IAZ004>006-015-016-023>025-035-036-230100-
   NORTH CENTRAL IOWA

CITY           SKY/WX    TMP DP  RH WIND       PRES   REMARKS
ALGONA *       MOSUNNY   61  32  33 NE5       30.03F
CLARION *      SUNNY     57  36  44 NE5       30.03F
ESTHERVILLE    PTSUNNY   60  33  36 E8        30.01F
6HR MIN TEMP:  57; 6HR MAX TEMP:  63;

FORT DODGE *   PTSUNNY   61  34  36 E7        30.03F
MASON CITY     SUNNY     57  35  43 NE9       30.05F
6HR MIN TEMP:  56; 6HR MAX TEMP:  61;

FOREST CITY *  SUNNY     57  32  38 N3        30.03S
IOWA FALLS *     N/A     59  34  38 N3        30.04F
$$

IAZ007>011-017>019-026>030-037>042-050>054-066-230100-
   NORTHEAST IOWA

CITY           SKY/WX    TMP DP  RH WIND       PRES   REMARKS
CEDAR RAPIDS   CLEAR     58  31  35 N13       30.01S
6HR MIN TEMP:  56; 6HR MAX TEMP:  62;

CHARLES CITY * SUNNY     55  34  44 N10       30.04F
CLINTON *      PTCLDY    57  27  30 N12       30.03R
DECORAH *      CLEAR     55  28  35 NW9       30.02S
DUBUQUE        CLEAR     55  28  35 NW10      30.01S
6HR MIN TEMP:  54; 6HR MAX TEMP:  59;

MONTICELLO *   CLEAR     57  28  33 N9G16     30.01S
OELWEIN *      CLEAR    N/A N/A N/A NW12      30.03S
WATERLOO       CLEAR     57  34  41 N9        30.03S
6HR MIN TEMP:  56; 6HR MAX TEMP:  60;

$$

IAZ064-065-067-068-078-230100-
   EAST CENTRAL IOWA

CITY           SKY/WX    TMP DP  RH WIND       PRES   REMARKS
DAVENPORT      CLEAR     59  27  29 N10       30.00S
6HR MIN TEMP:  58; 6HR MAX TEMP:  64;

IOWA CITY      CLEAR     61  30  31 NW6       30.02S
6HR MIN TEMP:  56; 6HR MAX TEMP:  63;

MT. PLEASANT * CLEAR     63  23  22 N10       30.01S
MUSCATINE *    CLEAR     61  28  29 N8        30.01S
$$

IAZ062-063-075>077-085>089-095>099-230100-
   SOUTHEAST IOWA

CITY           SKY/WX    TMP DP  RH WIND       PRES   REMARKS
BURLINGTON     CLEAR     62  26  25 NW10      30.00S
6HR MIN TEMP:  60; 6HR MAX TEMP:  65;

FAIRFIELD *    CLEAR     61  30  31 N9        30.02S
FORT MADISON * CLEAR     63  30  29 NW9       30.01F
KEOKUK *       CLEAR     63  28  27 N8        30.00F
OSKALOOSA *      N/A     62  32  32 N8        30.02F
CENTERVILLE *  CLEAR     63  32  31 N5        30.03F
OTTUMWA        CLEAR     61  32  33 N8        30.02S
6HR MIN TEMP:  59; 6HR MAX TEMP:  65;

WASHINGTON *   CLEAR     61  30  31 N10       30.02S
$$

ABBREVIATIONS USED IN REMARKS
   TC - TEMPERATURES IN CELSIUS
  WCI - WIND CHILL INDEX
   HX - HEAT INDEX
  VSB - VISIBILITY
$$




USA.gov is the U.S. government's official web portal to all federal, state and local government web resources and services.